Regional Weather Roundup
Issued by NWS Goodland, KS

Home | Current Version | Previous Version | Graphics & Text | Print | Product List | Glossary On
Versions: 1 2 3 4 5 6 7 8 9 10 11 12 13 14 15 16 17 18 19 20 21 22 23 24 25 26 27 28 29 30 31 32 33 34 35 36 37 38 39 40 41 42 43 44 45 46 47 48 49 50
000
ASUS43 KGLD 280208
RWRGLD

GOODLAND FORECAST AREA HOURLY WEATHER ROUNDUP
NATIONAL WEATHER SERVICE GOODLAND KS
800 PM MDT THU JUL 27 2017

...OFFICIAL OBSERVATIONS...

CITY           SKY/WX    TMP DP  RH WIND       PRES   REMARKS
GOODLAND KS    CLOUDY    77  64  64 S7        30.09R
HILL CITY KS   CLEAR     79  64  60 E6        30.04R
IMPERIAL NEB   MOCLDY    79  60  52 SE12      30.05S
MCCOOK NEB     CLEAR     77  60  55 E9        30.05R
AKRON CO       CLEAR     79  58  48 SE17      30.10R
BURLINGTON CO  CLOUDY    75  63  66 SE9       30.12R
LIMON CO       CLOUDY    73  62  68 S14G21    30.17F
$$

...UNOFFICIAL OBSERVATIONS...

CITY           SKY/WX    TMP DP  RH WIND       PRES   REMARKS
LENORA KS        N/A     75  32  20 MISG        N/A
NORTON KS      CLEAR     73  57  56 NE7       30.05R
SHARON SPRINGS   N/A     76  65  70 SE6         N/A
TRENTON NEB      N/A     76  32  20 SE6         N/A
KIT CARSON CO    N/A     76  64  65 MISG        N/A
YUMA CO        FAIR      77  55  47 SE10      30.08S
$$




USA.gov is the U.S. government's official web portal to all federal, state and local government web resources and services.